Weather History for Ainsworth, NE

Change the Weather History Date:

Thursday, December 13, 2012

  Actual Average Record
Temperature  
Mean Temperature 34 °F -  
Max Temperature 41 °F 37 °F 55 °F (2014)
Min Temperature 27 °F 18 °F 0 °F (2000)
Degree Days  
Heating Degree Days 31    
Moisture  
Dew Point 21 °F    
Average Humidity 61    
Maximum Humidity 76    
Minimum Humidity 38    
Precipitation  
Precipitation 0.00 in - - ()
Sea Level Pressure  
Sea Level Pressure 29.94 in    
Wind  
Wind Speed 8 mph (SW)    
Max Wind Speed 18 mph    
Max Gust Speed -    
Visibility 10 miles    
Events      
Averages and records for this station are not official NWS values.
T = Trace of Precipitation, MM = Missing Value Source: NWS Daily Summary

Daily Weather History Graph

Daily Weather History Graph

Search for Another Location

Airport:

Trip Planner

Search our weather history database for the weather conditions in past years. The results will help you decide how hot, cold, wet, or windy it might be!

Date:

Astronomy

Dec. 13, 2012 Rise Set
Actual Time 8:01 AM CST 5:07 PM CST
Civil Twilight 7:29 AM CST 5:39 PM CST
Nautical Twilight 6:54 AM CST 6:14 PM CST
Astronomical Twilight 6:19 AM CST 6:48 PM CST
Moon 8:11 AM CST (12/13) 5:52 PM CST (12/13)
Length of Visible Light 10h 09m
Length of Day
9h 05m
New Moon, 0% of the Moon is Illuminated
Dec 13
New Moon
Dec 19
First Quarter
Dec 28
Full
Jan 4
Last Quarter
Jan 11
New

Hourly Weather History & Observations

Time (CST) Temp. Windchill Dew Point Humidity Pressure Visibility Wind Dir Wind Speed Gust Speed Precip Events Conditions
12:15 AM 33.8 °F 27.0 °F 14.4 °F 45% 29.80 in 10.0 mi SW 8.1 mph - N/A   Clear
12:35 AM 36.1 °F 28.7 °F 15.4 °F 43% 29.81 in 10.0 mi WSW 10.4 mph - N/A   Clear
12:55 AM 37.6 °F 30.0 °F 15.8 °F 41% 29.81 in 10.0 mi WSW 11.5 mph - N/A   Clear
1:15 AM 40.5 °F 33.2 °F 16.3 °F 38% 29.81 in 10.0 mi WSW 12.7 mph - N/A   Clear
1:35 AM 40.6 °F 33.8 °F 16.7 °F 38% 29.82 in 10.0 mi West 11.5 mph - N/A   Clear
1:55 AM 39.4 °F 32.7 °F 17.2 °F 41% 29.82 in 10.0 mi West 10.4 mph - N/A   Clear
2:15 AM 39.7 °F 33.2 °F 17.6 °F 41% 29.82 in 10.0 mi West 10.4 mph - N/A   Clear
2:35 AM 39.6 °F 32.5 °F 18.1 °F 42% 29.83 in 10.0 mi West 11.5 mph - N/A   Clear
2:55 AM 39.9 °F 33.4 °F 18.5 °F 42% 29.84 in 10.0 mi West 10.4 mph - N/A   Clear
3:15 AM 39.2 °F 33.6 °F 19.0 °F 44% 29.85 in 10.0 mi West 8.1 mph - N/A   Clear
3:35 AM 37.8 °F 29.8 °F 19.0 °F 47% 29.86 in 10.0 mi WSW 12.7 mph - N/A   Clear
3:55 AM 37.0 °F 29.8 °F 19.0 °F 48% 29.87 in 10.0 mi West 10.4 mph - N/A   Clear
4:15 AM 36.5 °F 29.2 °F 19.0 °F 49% 29.87 in 10.0 mi West 10.4 mph - N/A   Clear
4:35 AM 33.4 °F 24.8 °F 19.0 °F 56% 29.88 in 10.0 mi WSW 11.5 mph - N/A   Clear
4:55 AM 35.1 °F 27.4 °F 19.2 °F 53% 29.88 in 10.0 mi West 10.4 mph - N/A   Clear
5:15 AM 35.4 °F 28.4 °F 19.4 °F 52% 29.88 in 10.0 mi West 9.2 mph - N/A   Clear
5:35 AM 33.4 °F 29.1 °F 19.4 °F 56% 29.89 in 10.0 mi West 4.6 mph - N/A   Clear
5:55 AM 31.6 °F 23.7 °F 19.0 °F 60% 29.89 in 10.0 mi WSW 9.2 mph - N/A   Clear
6:15 AM 31.8 °F 24.6 °F 19.4 °F 60% 29.90 in 10.0 mi West 8.1 mph - N/A   Clear
6:35 AM 30.7 °F 24.9 °F 19.4 °F 63% 29.91 in 10.0 mi WSW 5.8 mph - N/A   Clear
6:55 AM 29.8 °F 22.2 °F 19.2 °F 65% 29.92 in 10.0 mi West 8.1 mph - N/A   Clear
7:15 AM 29.3 °F 20.8 °F 19.6 °F 67% 29.94 in 10.0 mi West 9.2 mph - N/A   Clear
7:35 AM 28.9 °F 21.1 °F 19.8 °F 69% 29.96 in 10.0 mi WNW 8.1 mph - N/A   Clear
7:55 AM 28.8 °F 21.7 °F 19.8 °F 69% 29.97 in 10.0 mi West 6.9 mph - N/A   Clear
8:15 AM 29.1 °F 24.1 °F 20.3 °F 70% 29.98 in 10.0 mi NW 4.6 mph - N/A   Clear
8:35 AM 27.9 °F 22.6 °F 19.4 °F 71% 29.99 in 10.0 mi NNW 4.6 mph - N/A   Clear
8:55 AM 28.9 °F 22.8 °F 20.7 °F 71% 30.00 in 10.0 mi NNW 5.8 mph - N/A   Clear
9:15 AM 29.5 °F 23.4 °F 21.6 °F 72% 30.01 in 10.0 mi NNW 5.8 mph - N/A   Clear
9:35 AM 30.9 °F 23.5 °F 23.0 °F 72% 30.01 in 10.0 mi NW 8.1 mph - N/A   Clear
9:55 AM 31.5 °F 22.3 °F 23.2 °F 71% 30.01 in 10.0 mi NNW 11.5 mph - N/A   Clear
10:15 AM 31.8 °F 20.2 °F 23.5 °F 71% 29.98 in 10.0 mi North 18.4 mph - N/A   Clear
10:35 AM 30.2 °F 20.2 °F 22.5 °F 73% 30.00 in 10.0 mi North 12.7 mph - N/A   Clear
10:55 AM 31.1 °F 27.7 °F 23.0 °F 72% 30.02 in 10.0 mi North 3.5 mph - N/A   Clear
11:15 AM 31.6 °F 28.3 °F 23.2 °F 71% 30.02 in 10.0 mi NNE 3.5 mph - N/A   Clear
11:35 AM 32.0 °F - 23.7 °F 71% 30.02 in 10.0 mi Calm Calm - N/A   Clear
11:55 AM 32.9 °F - 23.9 °F 69% 30.02 in 10.0 mi Calm Calm - N/A   Clear
12:15 PM 34.7 °F - 24.1 °F 65% 30.01 in 10.0 mi Calm Calm - N/A   Clear
12:35 PM 36.9 °F - 24.1 °F 60% 30.01 in 10.0 mi Calm Calm - N/A   Clear
12:55 PM 38.1 °F - 24.3 °F 57% 30.01 in 10.0 mi Calm Calm - N/A   Clear
1:15 PM 39.4 °F 37.2 °F 24.1 °F 54% 30.01 in 10.0 mi South 3.5 mph - N/A   Clear
1:35 PM 39.2 °F 35.9 °F 23.9 °F 54% 30.01 in 10.0 mi SSW 4.6 mph - N/A   Clear
1:55 PM 40.1 °F 38.0 °F 24.1 °F 53% 30.01 in 10.0 mi SW 3.5 mph - N/A   Clear
2:15 PM 40.5 °F - 23.9 °F 52% 29.99 in 10.0 mi Calm Calm - N/A   Clear
2:35 PM 40.5 °F 38.4 °F 24.3 °F 52% 29.99 in 10.0 mi ESE 3.5 mph - N/A   Clear
2:55 PM 40.6 °F - 24.1 °F 52% 29.99 in 10.0 mi Calm Calm - N/A   Clear
3:15 PM 40.5 °F 38.4 °F 24.4 °F 53% 29.99 in 10.0 mi East 3.5 mph - N/A   Clear
3:35 PM 41.0 °F 39.0 °F 24.6 °F 52% 29.98 in 10.0 mi East 3.5 mph - N/A   Clear
3:55 PM 40.3 °F 37.1 °F 24.4 °F 53% 29.99 in 10.0 mi East 4.6 mph - N/A   Clear
4:15 PM 39.2 °F 35.9 °F 24.4 °F 56% 29.98 in 10.0 mi East 4.6 mph - N/A   Clear
4:35 PM 37.8 °F 33.3 °F 23.9 °F 57% 29.98 in 10.0 mi East 5.8 mph - N/A   Clear
4:55 PM 35.6 °F 30.7 °F 23.0 °F 60% 29.97 in 10.0 mi East 5.8 mph - N/A   Clear
5:15 PM 33.8 °F 27.7 °F 23.0 °F 65% 29.96 in 10.0 mi East 6.9 mph - N/A   Clear
5:35 PM 33.8 °F 29.6 °F 23.0 °F 65% 29.97 in 10.0 mi ESE 4.6 mph - N/A   Clear
6:15 PM 31.6 °F 24.4 °F 22.6 °F 69% 29.97 in 10.0 mi SE 8.1 mph - N/A   Clear
6:35 PM 30.2 °F 23.4 °F 21.2 °F 69% 29.97 in 10.0 mi SE 6.9 mph - N/A   Clear
6:55 PM 28.4 °F 22.2 °F 21.2 °F 74% 29.97 in 10.0 mi ESE 5.8 mph - N/A   Clear
7:15 PM 30.0 °F 24.1 °F 22.1 °F 72% 29.97 in 10.0 mi SE 5.8 mph - N/A   Clear
7:35 PM 27.9 °F 21.5 °F 20.5 °F 74% 29.97 in 10.0 mi SSE 5.8 mph - N/A   Clear
7:55 PM 27.7 °F 20.4 °F 20.8 °F 75% 29.97 in 10.0 mi SSE 6.9 mph - N/A   Clear
8:15 PM 28.9 °F 21.9 °F 21.9 °F 75% 29.97 in 10.0 mi SSE 6.9 mph - N/A   Clear
8:35 PM 31.5 °F 23.5 °F 23.2 °F 71% 29.97 in 10.0 mi SSE 9.2 mph - N/A   Clear
8:55 PM 31.5 °F 24.2 °F 22.8 °F 70% 29.96 in 10.0 mi SSE 8.1 mph - N/A   Clear
9:15 PM 30.7 °F 22.6 °F 22.6 °F 72% 29.96 in 10.0 mi SSE 9.2 mph - N/A   Clear
9:35 PM 30.2 °F 21.9 °F 22.5 °F 73% 29.96 in 10.0 mi SSE 9.2 mph - N/A   Unknown
9:55 PM 28.9 °F 21.1 °F 22.1 °F 76% 29.96 in 10.0 mi SSE 8.1 mph - N/A   Clear
10:15 PM 31.6 °F 23.1 °F 23.7 °F 73% 29.96 in 10.0 mi South 10.4 mph - N/A   Clear
10:35 PM 31.5 °F 21.8 °F 24.1 °F 74% 29.95 in 10.0 mi South 12.7 mph - N/A   Clear
10:55 PM 33.4 °F 24.3 °F 24.3 °F 69% 29.95 in 10.0 mi South 12.7 mph - N/A   Clear
11:15 PM 33.1 °F 24.4 °F 23.9 °F 69% 29.94 in 10.0 mi South 11.5 mph - N/A   Clear
11:35 PM 32.0 °F 24.2 °F 23.5 °F 71% 29.94 in 10.0 mi South 9.2 mph - N/A   Clear
11:55 PM 31.8 °F 23.3 °F 23.4 °F 71% 29.94 in 10.0 mi South 10.4 mph - N/A   Clear